Location: Eschertshofen
(49.3064°N, 11.5756°E)
Time: 13:02:53
(UTC+00:00)

Meteor 2-19 Rocket - Pass Details

Date: 18 September 2020
Orbit: 935 x 959 km, 82.5° (Epoch: 25 October)

Event Time Altitude Azimuth Distance (km) Brightness Sun altitude
Rises 19:56:45 0° 352° (N) 3,641 8.1 -24.8°
Reaches altitude 10° 19:59:19 10° 356° (N) 2,688 7.3 -25.1°
Maximum altitude 20:05:23 60° 76° (ENE) 1,079 4.5 -25.9°
Enters shadow 20:05:39 59° 88° (E) 1,084 4.4 -26.0°
